GW3084 Weather Reports


Display with metric or nautical units.
time (UTC)temp
F
wind
direction
speed
MPH
gust
MPH
rain 1hr
in
rain 24hr
in
rain mn
in
humidity
%
barometer
mb
20260901095044 75 269 3.0 6.0 0.00 0.05 0.00 95 1012.8
20260901094019 75 277 2.0 4.0 0.00 0.05 0.00 95 1012.7
20260901093035 75 276 2.0 4.0 0.00 0.05 0.00 95 1012.8
20260901092032 75 278 2.0 4.0 0.00 0.05 0.00 95 1012.6
20260901091029 75 280 2.0 6.0 0.00 0.05 0.00 95 1012.7
20260901090045 75 273 2.0 4.0 0.00 0.05 0.00 94 1012.8
20260901085017 75 278 2.0 6.0 0.00 0.05 0.00 95 1012.7
20260901084034 74 276 2.0 4.0 0.00 0.05 0.00 95 1012.6
20260901083029 74 273 2.0 4.0 0.00 0.05 0.00 95 1012.5
20260901082025 74 274 2.0 4.0 0.00 0.05 0.00 95 1012.4
20260901081041 74 274 2.0 4.0 0.00 0.05 0.00 96 1012.5
20260901080015 73 267 2.0 3.0 0.00 0.05 0.00 97 1012.5
20260901075032 73 261 1.0 6.0 0.00 0.05 0.00 97 1012.6
20260901074028 72 269 1.0 2.0 0.00 0.05 0.00 96 1012.5
20260901073044 72 261 0.0 2.0 0.00 0.05 0.00 96 1012.5
20260901072021 72 181 0.0 1.0 0.00 0.05 0.00 96 1012.5
20260901071039 71 179 0.0 1.0 0.00 0.05 0.00 96 1012.5
20260901070034 72 0.0 0.0 0.00 0.05 0.00 95 1012.7
20260901065030 72 144 0.0 1.0 0.00 0.05 0.00 95 1012.7
20260901064107 72 143 0.0 1.0 0.00 0.05 0.00 95 1012.7
20260901063043 72 0.0 0.0 0.00 0.05 0.00 94 1012.5
20260901062021 72 0.0 0.0 0.00 0.06 0.00 92 1012.6
20260901061017 73 0.0 0.0 0.00 0.06 0.00 92 1012.5
20260901060035 73 147 0.0 1.0 0.00 0.06 0.00 93 1012.6
20260901055030 73 156 0.0 1.0 0.00 0.06 0.00 93 1012.7
20260901054027 73 192 0.0 1.0 0.00 0.06 0.00 94 1012.8
20260901053023 73 188 0.0 1.0 0.00 0.06 0.00 93 1012.7
20260901052021 73 166 0.0 1.0 0.00 0.06 0.00 93 1012.6
20260901051017 73 152 0.0 1.0 0.00 0.06 0.00 92 1012.6
20260901050034 73 143 0.0 1.0 0.00 0.06 0.00 93 1012.6
20260901045030 73 150 0.0 1.0 0.00 0.06 0.06 93 1012.7
20260901044027 73 0.0 0.0 0.00 0.06 0.06 92 1012.8
20260901043044 73 0.0 0.0 0.00 0.06 0.06 91 1012.8
20260901042040 73 154 0.0 1.0 0.00 0.06 0.06 91 1012.8
20260901041019 73 145 0.0 1.0 0.00 0.06 0.06 91 1012.8
20260901040034 73 145 1.0 1.0 0.00 0.06 0.06 89 1012.7
20260901035051 74 128 0.0 1.0 0.00 0.06 0.06 88 1012.8
20260901034047 74 137 0.0 1.0 0.00 0.06 0.06 90 1012.8
20260901033024 74 138 0.0 1.0 0.00 0.06 0.06 87 1012.8
20260901032021 74 137 0.0 1.0 0.00 0.06 0.06 84 1012.8
20260901031018 75 152 0.0 1.0 0.00 0.06 0.06 85 1012.7
20260901030035 75 160 0.0 1.0 0.00 0.06 0.06 86 1012.9
20260901025032 75 0.0 0.0 0.00 0.06 0.06 84 1012.9
20260901024028 75 118 0.0 1.0 0.00 0.06 0.06 83 1012.9
20260901023025 75 123 0.0 1.0 0.00 0.06 0.06 83 1012.8
20260901022022 75 135 0.0 1.0 0.00 0.06 0.06 82 1012.8
20260901021019 75 160 0.0 1.0 0.00 0.06 0.06 83 1012.8
20260901020016 75 150 0.0 1.0 0.00 0.06 0.06 82 1012.7
20260901015033 76 145 1.0 2.0 0.00 0.06 0.06 81 1012.6
20260901014029 76 144 0.0 1.0 0.00 0.06 0.06 82 1012.5
20260901013026 77 125 0.0 1.0 0.00 0.06 0.06 80 1012.3
20260901012044 78 143 1.0 2.0 0.00 0.06 0.06 76 1012.0
20260901011020 80 151 1.0 2.0 0.00 0.06 0.06 78 1011.9
20260901010017 80 156 0.0 2.0 0.00 0.06 0.06 78 1011.7
20260901005034 80 160 0.0 2.0 0.00 0.06 0.06 77 1011.7
20260901004031 82 139 1.0 3.0 0.00 0.06 0.06 74 1011.8
20260901003047 83 231 1.0 4.0 0.00 0.06 0.06 75 1011.6
20260901002024 83 219 1.0 3.0 0.00 0.06 0.06 75 1011.4
20260901001021 84 231 2.0 6.0 0.00 0.06 0.06 74 1011.4
20260901000018 84 229 2.0 8.0 0.00 0.06 0.06 73 1011.4
20260831235035 85 250 2.0 4.0 0.00 0.06 0.06 72 1011.3
20260831234053 85 233 1.0 4.0 0.00 0.06 0.06 72 1011.0
20260831233028 85 216 1.0 3.0 0.00 0.06 0.06 72 1010.9
20260831232025 85 195 1.0 6.0 0.00 0.06 0.06 72 1010.7
20260831231043 85 209 2.0 9.0 0.00 0.06 0.06 71 1011.0
20260831230020 85 241 2.0 8.0 0.00 0.06 0.06 71 1011.1
20260831225016 86 250 2.0 7.0 0.00 0.06 0.06 70 1010.8
20260831224053 86 259 2.0 7.0 0.00 0.06 0.06 68 1010.8
20260831223030 88 265 2.0 7.0 0.00 0.06 0.06 67 1010.8
20260831222047 89 255 3.0 8.0 0.00 0.06 0.06 65 1010.7
20260831221023 89 256 3.0 14.0 0.00 0.06 0.06 65 1010.7
20260831220021 88 256 3.0 8.0 0.00 0.06 0.06 65 1010.8
20260831215016 89 260 3.0 10.0 0.00 0.06 0.06 64 1010.7
20260831214034 89 268 3.0 13.0 0.00 0.06 0.06 62 1010.7
20260831213031 90 265 4.0 11.0 0.00 0.06 0.06 61 1010.7
20260831212027 90 263 4.0 10.0 0.00 0.06 0.06 60 1010.6
20260831211024 91 259 2.0 8.0 0.00 0.06 0.06 59 1010.3
20260831210022 92 268 3.0 9.0 0.00 0.06 0.06 57 1010.4
20260831205017 92 273 3.0 13.0 0.00 0.06 0.06 58 1010.5
20260831204114 85 255 2.0 8.0 0.00 0.06 0.06 65 1010.5
20260831203031 83 121 2.0 4.0 0.00 0.06 0.06 63 1010.7
20260831202028 85 108 2.0 6.0 0.00 0.06 0.06 59 1010.4
20260831201024 90 128 2.0 6.0 0.00 0.06 0.06 53 1010.4
20260831200043 91 203 2.0 10.0 0.00 0.06 0.06 54 1010.5
20260831195058 90 237 3.0 10.0 0.00 0.06 0.06 59 1010.6
20260831194035 83 176 2.0 10.0 0.00 0.06 0.06 64 1010.7
20260831193031 82 142 3.0 8.0 0.00 0.06 0.06 65 1010.7
20260831192028 82 132 3.0 7.0 0.00 0.06 0.06 65 1010.7
20260831191025 82 135 3.0 7.0 0.00 0.06 0.06 64 1010.8
20260831190021 83 135 3.0 8.0 0.00 0.06 0.06 63 1010.7
20260831185018 85 128 3.0 9.0 0.00 0.06 0.06 58 1010.7
20260831184035 88 145 3.0 8.0 0.00 0.06 0.06 57 1010.7
20260831183132 88 143 3.0 9.0 0.00 0.06 0.06 56 1011.0
20260831182028 85 169 3.0 11.0 0.00 0.06 0.06 60 1010.8
20260831181105 84 124 3.0 7.0 0.00 0.06 0.06 58 1010.9
20260831180023 86 110 2.0 7.0 0.00 0.06 0.06 55 1011.0
20260831175020 91 163 3.0 8.0 0.00 0.06 0.06 51 1011.1
20260831174036 91 255 3.0 11.0 0.00 0.06 0.06 53 1011.0
20260831173054 91 230 3.0 10.0 0.00 0.06 0.06 53 1011.2
20260831172029 90 234 4.0 10.0 0.00 0.06 0.06 54 1011.3
20260831171026 88 250 3.0 8.0 0.00 0.06 0.06 57 1011.3
20260831170023 86 191 3.0 8.0 0.00 0.06 0.06 58 1011.4
20260831165020 86 131 3.0 8.0 0.00 0.06 0.06 56 1011.4
20260831164016 88 184 3.0 7.0 0.00 0.06 0.06 55 1011.4
20260831163034 88 250 4.0 10.0 0.00 0.06 0.06 57 1011.5
20260831162031 87 224 3.0 10.0 0.00 0.06 0.06 58 1011.5
20260831161028 87 248 3.0 9.0 0.00 0.06 0.06 60 1011.7
20260831160106 87 243 3.0 8.0 0.00 0.06 0.06 59 1011.5
20260831155040 87 205 3.0 9.0 0.00 0.06 0.06 60 1011.6
20260831154018 86 221 3.0 9.0 0.00 0.06 0.06 61 1011.6
20260831153034 86 235 3.0 9.0 0.00 0.06 0.06 61 1011.6
20260831152030 84 225 3.0 9.0 0.00 0.06 0.06 64 1011.8
20260831151028 82 205 3.0 8.0 0.00 0.06 0.06 69 1011.7
20260831150024 80 170 2.0 7.0 0.00 0.06 0.06 73 1011.8
20260831145104 78 175 2.0 8.0 0.00 0.06 0.06 76 1011.9
20260831144019 77 165 2.0 6.0 0.00 0.06 0.06 79 1011.8
20260831143034 75 138 1.0 2.0 0.00 0.06 0.06 83 1011.8
20260831142032 72 153 0.0 1.0 0.00 0.06 0.06 88 1011.8
20260831141028 71 151 1.0 2.0 0.00 0.06 0.06 90 1011.8
20260831140025 70 157 1.0 2.0 0.00 0.06 0.06 91 1011.7
20260831135042 69 166 0.0 3.0 0.00 0.06 0.06 90 1011.7
20260831134018 69 142 1.0 3.0 0.00 0.06 0.06 91 1011.8
20260831133035 70 141 1.0 3.0 0.00 0.06 0.06 90 1011.8
20260831132032 71 134 1.0 3.0 0.00 0.06 0.06 89 1011.9
20260831131028 72 133 1.0 3.0 0.00 0.06 0.06 91 1011.8
20260831130025 72 176 2.0 6.0 0.00 0.06 0.06 93 1011.8
20260831125022 71 182 2.0 7.0 0.00 0.06 0.06 95 1012.0
20260831124040 70 194 2.0 7.0 0.00 0.06 0.06 97 1011.9
20260831123057 70 201 2.0 8.0 0.00 0.06 0.06 99 1011.9
20260831122032 69 194 3.0 9.0 0.01 0.06 0.06 99 1011.9
20260831121029 68 188 3.0 7.0 0.04 0.06 0.06 99 1011.8
20260831120026 67 193 2.0 7.0 0.04 0.06 0.06 99 1011.8
20260831115022 66 194 1.0 6.0 0.04 0.06 0.06 99 1011.8
20260831114019 65 178 1.0 6.0 0.04 0.06 0.06 99 1011.9
20260831113036 65 149 1.0 4.0 0.04 0.06 0.06 98 1012.2
20260831112034 66 128 2.0 6.0 0.03 0.05 0.05 98 1012.7
20260831111052 67 139 1.0 6.0 0.00 0.02 0.02 99 1012.8
20260831110026 68 130 2.0 6.0 0.00 0.02 0.02 98 1012.7
20260831105023 69 148 1.0 4.0 0.01 0.02 0.02 98 1012.8
20260831104020 69 144 1.0 4.0 0.01 0.02 0.02 97 1012.7
20260831103017 70 149 1.0 4.0 0.01 0.02 0.02 97 1012.8
20260831102034 70 178 1.0 6.0 0.01 0.02 0.02 96 1012.5
20260831101030 71 176 2.0 4.0 0.01 0.02 0.02 95 1012.5
20260831100047 71 198 2.0 4.0 0.01 0.02 0.02 93 1012.5